全球星 M076星 (GLOBALSTAR M076)

导读

GLOBALSTAR M076是全球星(Globalstar)系统的第二代低轨通信卫星,于2010年10月19日发射,属于全球星公司第二代星座首批组网卫星之一。它运行在约1414公里高度的倾斜圆轨道,属于低地球轨道通信卫星,采用码分多址技术,配备透明转发器,可为南北纬70度以内的偏远地区、海洋等无地面信号覆盖区域提供语音和数据通信服务,支撑全球卫星移动通信网络的覆盖能力。

基本信息
目录编号:
37190
目录名称:
GLOBALSTAR M076
国际标识:
2010-054C
轨道中心:
EARTH
卫星名称:
全球星 M076星
卫星全名:
全球星 M076星 (GLOBALSTAR M076)
卫星状态:
在轨 (已飞行5724 天)
发射日期:
2010-10-19 UTC
国别 :
(GLOB)
星等 :
--
轨道信息
数据来源 国际轨道数据 AOE轨道数据
星历时间 2026-06-20T13:15:40+0800
1天前
查看轨道信息
2026-06-17T00:00:00+0800
5天前
查看轨道信息
半长轴 7791.76km 7791.762km
偏心率 0.0000807 0.0000813
轨道倾角 52.002° 52.002°
近地点辐角 49.241° 43.225°
升交点赤经 98.907° 109.723°
平近点角 108.486° 163.354°
近地点 1412.994km 1412.991km
远地点 1414.252km 1414.259km
周期 114.081分钟 114.081分钟
每日圈数 12.622618 12.622614
详细信息
固有亮度:
5
最大亮度:
7.2
平衡模式:
三轴稳定
覆盖范围:
全球
运营商:
全球星公司
运营商所在国:
美国
使用方式:
暂无
卫星简介
全球星星座由48颗卫星加8颗备份星组成。这些卫星分布在8个倾角为52度的圆形轨道平面上,每个轨道平面6颗卫星,另有1 颗备用星。轨道高度约为1414km,传输时延和处理时延小于300ms,整个系统的覆盖区为南北纬70度以内的地区。该卫星已退役。
2D轨道图
3D轨道图
轨道高度分析图
轨道倾角分析图
轨道综合分析图
查看轨道综合分析图